contact:dominique.lefevre@mio.osupytheas.fr, maurice.libes@osupytheas.fr, didier.mallarino@osupytheas.fr
Project:EMSO http://www.emso-fr.org/EMSO-France
Depth: 2436.0 m
Title:EMSO Ligure Ouest : Data MII capteur MICROCAT
DateTime_Computer,Latitude,Longitude,Temperature,Conductivity,Pressure,DateTime_Instrument
DateTime_Computer,Latitude,Longitude,degC,S m-1,dbar,DateTime_Instrument
2020-04-23T00:01:46Z,42.805,6.029,13.2965,4.59973,2470.063,2020-4-23T02:02:27Z
2020-04-23T00:04:50Z,42.805,6.029,13.2967,4.59976,2470.04,2020-4-23T02:05:30Z
2020-04-23T00:07:53Z,42.805,6.029,13.2967,4.59973,2470.077,2020-4-23T02:08:33Z
2020-04-23T00:10:56Z,42.805,6.029,13.2965,4.59971,2470.04,2020-4-23T02:11:36Z
2020-04-23T00:13:59Z,42.805,6.029,13.2964,4.59971,2470.053,2020-4-23T02:14:40Z
2020-04-23T00:17:03Z,42.805,6.029,13.2967,4.59973,2470.087,2020-4-23T02:17:43Z
2020-04-23T00:20:06Z,42.805,6.029,13.2967,4.59976,2470.03,2020-4-23T02:20:46Z
2020-04-23T00:23:09Z,42.805,6.029,13.2964,4.59973,2470.04,2020-4-23T02:23:49Z
2020-04-23T00:26:12Z,42.805,6.029,13.2967,4.59974,2470.017,2020-4-23T02:26:53Z
2020-04-23T00:29:15Z,42.805,6.029,13.2967,4.59973,2470.053,2020-4-23T02:29:56Z
2020-04-23T00:32:19Z,42.805,6.029,13.2967,4.59973,2470.04,2020-4-23T02:32:59Z
2020-04-23T00:35:22Z,42.805,6.029,13.2967,4.59972,2470.03,2020-4-23T02:36:02Z
2020-04-23T00:38:25Z,42.805,6.029,13.2963,4.59971,2470.017,2020-4-23T02:39:05Z
2020-04-23T00:41:29Z,42.805,6.029,13.2968,4.59973,2470.077,2020-4-23T02:42:09Z
2020-04-23T00:44:32Z,42.805,6.029,13.2965,4.59973,2470.017,2020-4-23T02:45:12Z
2020-04-23T00:47:35Z,42.805,6.029,13.2968,4.59973,2470.077,2020-4-23T02:48:15Z
2020-04-23T00:50:38Z,42.805,6.029,13.2966,4.59973,2470.063,2020-4-23T02:51:18Z
2020-04-23T00:53:42Z,42.805,6.029,13.2964,4.59976,2470.063,2020-4-23T02:54:22Z
2020-04-23T00:56:45Z,42.805,6.029,13.2967,4.59972,2470.017,2020-4-23T02:57:25Z
2020-04-23T00:59:48Z,42.805,6.029,13.2966,4.59971,2470.03,2020-4-23T03:00:28Z
2020-04-23T01:02:51Z,42.805,6.029,13.2965,4.59973,2470.053,2020-4-23T03:03:31Z
2020-04-23T01:05:54Z,42.805,6.029,13.2965,4.59976,2470.04,2020-4-23T03:06:35Z
2020-04-23T01:08:58Z,42.805,6.029,13.2967,4.59974,2470.063,2020-4-23T03:09:38Z
2020-04-23T01:12:01Z,42.805,6.029,13.2971,4.59974,2470.03,2020-4-23T03:12:41Z
2020-04-23T01:15:04Z,42.805,6.029,13.2967,4.59975,2470.017,2020-4-23T03:15:44Z
2020-04-23T01:18:07Z,42.805,6.029,13.2967,4.59974,2470.04,2020-4-23T03:18:48Z
2020-04-23T01:21:11Z,42.805,6.029,13.2966,4.59973,2470.03,2020-4-23T03:21:51Z
2020-04-23T01:24:14Z,42.805,6.029,13.2965,4.59973,2470.017,2020-4-23T03:24:54Z
2020-04-23T01:27:17Z,42.805,6.029,13.2966,4.59975,2470.007,2020-4-23T03:27:57Z
2020-04-23T01:30:20Z,42.805,6.029,13.2968,4.59973,2470.017,2020-4-23T03:31:01Z
2020-04-23T01:33:24Z,42.805,6.029,13.2963,4.59983,2470.04,2020-4-23T03:34:04Z
2020-04-23T01:36:27Z,42.805,6.029,13.2968,4.59975,2470.04,2020-4-23T03:37:07Z
2020-04-23T01:39:30Z,42.805,6.029,13.2967,4.59976,2470.017,2020-4-23T03:40:10Z
2020-04-23T01:42:33Z,42.805,6.029,13.2967,4.59977,2470.04,2020-4-23T03:43:14Z
2020-04-23T01:45:37Z,42.805,6.029,13.2968,4.59981,2470.007,2020-4-23T03:46:17Z
2020-04-23T01:48:40Z,42.805,6.029,13.2962,4.59976,2469.993,2020-4-23T03:49:20Z
2020-04-23T01:51:43Z,42.805,6.029,13.2965,4.59978,2470.04,2020-4-23T03:52:23Z
2020-04-23T01:54:46Z,42.805,6.029,13.2965,4.59974,2470.04,2020-4-23T03:55:27Z
2020-04-23T01:57:50Z,42.805,6.029,13.2969,4.59981,2470.03,2020-4-23T03:58:30Z
2020-04-23T02:00:53Z,42.805,6.029,13.2964,4.59977,2470.017,2020-4-23T04:01:33Z
2020-04-23T02:03:56Z,42.805,6.029,13.2966,4.59976,2470.017,2020-4-23T04:04:36Z
2020-04-23T02:06:59Z,42.805,6.029,13.2968,4.59983,2470.017,2020-4-23T04:07:40Z
2020-04-23T02:10:03Z,42.805,6.029,13.2967,4.59975,2470.03,2020-4-23T04:10:43Z
2020-04-23T02:13:06Z,42.805,6.029,13.2967,4.59976,2470.017,2020-4-23T04:13:46Z
2020-04-23T02:16:09Z,42.805,6.029,13.2964,4.59974,2470.04,2020-4-23T04:16:49Z
2020-04-23T02:19:12Z,42.805,6.029,13.2964,4.59973,2470.04,2020-4-23T04:19:53Z
2020-04-23T02:22:16Z,42.805,6.029,13.2967,4.59973,2470.007,2020-4-23T04:22:56Z
2020-04-23T02:25:19Z,42.805,6.029,13.2964,4.59976,2470.017,2020-4-23T04:25:59Z
2020-04-23T02:28:22Z,42.805,6.029,13.2965,4.59975,2470.03,2020-4-23T04:29:02Z
2020-04-23T02:31:25Z,42.805,6.029,13.2965,4.59976,2470.053,2020-4-23T04:32:06Z
2020-04-23T02:34:29Z,42.805,6.029,13.2967,4.59977,2470.04,2020-4-23T04:35:09Z
2020-04-23T02:37:32Z,42.805,6.029,13.2968,4.59980,2470.026,2020-4-23T04:38:12Z
2020-04-23T02:40:35Z,42.805,6.029,13.2967,4.59976,2470.017,2020-4-23T04:41:15Z
2020-04-23T02:43:38Z,42.805,6.029,13.2966,4.59986,2470.03,2020-4-23T04:44:19Z
2020-04-23T02:46:42Z,42.805,6.029,13.2967,4.59975,2470.007,2020-4-23T04:47:22Z
2020-04-23T02:49:45Z,42.805,6.029,13.2966,4.59978,2470.053,2020-4-23T04:50:26Z
2020-04-23T02:52:49Z,42.805,6.029,13.2965,4.59976,2470.053,2020-4-23T04:53:29Z
2020-04-23T02:55:52Z,42.805,6.029,13.2965,4.59976,2470.04,2020-4-23T04:56:32Z
2020-04-23T02:58:55Z,42.805,6.029,13.2965,4.59976,2470.017,2020-4-23T04:59:35Z
2020-04-23T03:01:58Z,42.805,6.029,13.2964,4.59976,2470.017,2020-4-23T05:02:38Z
2020-04-23T03:05:02Z,42.805,6.029,13.2967,4.59984,2470.053,2020-4-23T05:05:42Z
2020-04-23T03:08:05Z,42.805,6.029,13.2968,4.59985,2470.053,2020-4-23T05:08:45Z
2020-04-23T03:11:08Z,42.805,6.029,13.2966,4.59985,2470.017,2020-4-23T05:11:48Z
2020-04-23T03:14:11Z,42.805,6.029,13.2965,4.59981,2470.017,2020-4-23T05:14:52Z
2020-04-23T03:17:15Z,42.805,6.029,13.2964,4.59978,2470.04,2020-4-23T05:17:55Z
2020-04-23T03:20:18Z,42.805,6.029,13.2973,4.59977,2470.063,2020-4-23T05:20:58Z
2020-04-23T03:23:21Z,42.805,6.029,13.2965,4.59977,2470.04,2020-4-23T05:24:01Z
2020-04-23T03:26:24Z,42.805,6.029,13.2966,4.59978,2470.03,2020-4-23T05:27:04Z
2020-04-23T03:29:28Z,42.805,6.029,13.2967,4.59975,2470.04,2020-4-23T05:30:08Z
2020-04-23T03:32:31Z,42.805,6.029,13.2969,4.59978,2470.053,2020-4-23T05:33:11Z
2020-04-23T03:35:34Z,42.805,6.029,13.2967,4.59981,2470.077,2020-4-23T05:36:14Z
2020-04-23T03:38:38Z,42.805,6.029,13.2967,4.59981,2470.04,2020-4-23T05:39:18Z
2020-04-23T03:41:41Z,42.805,6.029,13.2967,4.59978,2470.077,2020-4-23T05:42:21Z
2020-04-23T03:44:44Z,42.805,6.029,13.2965,4.59979,2470.063,2020-4-23T05:45:24Z
2020-04-23T03:47:47Z,42.805,6.029,13.2966,4.59976,2470.053,2020-4-23T05:48:27Z
2020-04-23T03:50:50Z,42.805,6.029,13.2967,4.59981,2470.063,2020-4-23T05:51:31Z
2020-04-23T03:53:54Z,42.805,6.029,13.2969,4.59982,2470.063,2020-4-23T05:54:34Z
2020-04-23T03:56:57Z,42.805,6.029,13.2966,4.59978,2470.04,2020-4-23T05:57:37Z
2020-04-23T04:00:00Z,42.805,6.029,13.2969,4.59978,2470.063,2020-4-23T06:00:41Z
2020-04-23T04:03:04Z,42.805,6.029,13.2966,4.59977,2470.063,2020-4-23T06:03:44Z
2020-04-23T04:06:07Z,42.805,6.029,13.2966,4.59978,2470.087,2020-4-23T06:06:47Z
2020-04-23T04:09:10Z,42.805,6.029,13.2967,4.59973,2470.087,2020-4-23T06:09:50Z
2020-04-23T04:12:13Z,42.805,6.029,13.2964,4.59976,2470.063,2020-4-23T06:12:53Z
2020-04-23T04:15:16Z,42.805,6.029,13.2968,4.59979,2470.124,2020-4-23T06:15:57Z
2020-04-23T04:18:20Z,42.805,6.029,13.2965,4.59975,2470.077,2020-4-23T06:19:00Z
2020-04-23T04:21:23Z,42.805,6.029,13.2964,4.59981,2470.1,2020-4-23T06:22:03Z
2020-04-23T04:24:26Z,42.805,6.029,13.2960,4.59973,2470.077,2020-4-23T06:25:06Z
2020-04-23T04:27:29Z,42.805,6.029,13.2964,4.59973,2470.077,2020-4-23T06:28:10Z
2020-04-23T04:30:33Z,42.805,6.029,13.2967,4.59977,2470.124,2020-4-23T06:31:13Z
2020-04-23T04:33:36Z,42.805,6.029,13.2966,4.59976,2470.087,2020-4-23T06:34:16Z
2020-04-23T04:36:39Z,42.805,6.029,13.2965,4.59976,2470.124,2020-4-23T06:37:19Z
2020-04-23T04:39:43Z,42.805,6.029,13.2966,4.59975,2470.11,2020-4-23T06:40:23Z
2020-04-23T04:42:46Z,42.805,6.029,13.2966,4.59976,2470.087,2020-4-23T06:43:26Z
2020-04-23T04:45:49Z,42.805,6.029,13.2968,4.59980,2470.124,2020-4-23T06:46:29Z
2020-04-23T04:48:52Z,42.805,6.029,13.2965,4.59977,2470.133,2020-4-23T06:49:32Z
2020-04-23T04:51:55Z,42.805,6.029,13.2971,4.59974,2470.087,2020-4-23T06:52:36Z
2020-04-23T04:54:59Z,42.805,6.029,13.2967,4.59973,2470.124,2020-4-23T06:55:39Z
2020-04-23T04:58:02Z,42.805,6.029,13.2967,4.59978,2470.087,2020-4-23T06:58:42Z
2020-04-23T05:01:05Z,42.805,6.029,13.2967,4.59975,2470.11,2020-4-23T07:01:45Z
2020-04-23T05:04:08Z,42.805,6.029,13.2964,4.59981,2470.133,2020-4-23T07:04:49Z
2020-04-23T05:07:12Z,42.805,6.029,13.2967,4.59986,2470.156,2020-4-23T07:07:52Z
2020-04-23T05:10:15Z,42.805,6.029,13.2971,4.59975,2470.11,2020-4-23T07:10:55Z
2020-04-23T05:13:18Z,42.805,6.029,13.2967,4.59974,2470.133,2020-4-23T07:13:58Z
2020-04-23T05:16:21Z,42.805,6.029,13.2968,4.59975,2470.133,2020-4-23T07:17:02Z
2020-04-23T05:19:25Z,42.805,6.029,13.2968,4.59979,2470.124,2020-4-23T07:20:05Z
2020-04-23T05:22:28Z,42.805,6.029,13.2964,4.59976,2470.147,2020-4-23T07:23:08Z
2020-04-23T05:25:31Z,42.805,6.029,13.2961,4.59978,2470.133,2020-4-23T07:26:11Z
2020-04-23T05:28:34Z,42.805,6.029,13.2969,4.59980,2470.147,2020-4-23T07:29:14Z
2020-04-23T05:31:38Z,42.805,6.029,13.2967,4.59978,2470.171,2020-4-23T07:32:18Z
2020-04-23T05:34:41Z,42.805,6.029,13.2967,4.59977,2470.194,2020-4-23T07:35:21Z
2020-04-23T05:37:44Z,42.805,6.029,13.2968,4.59978,2470.171,2020-4-23T07:38:24Z
2020-04-23T05:40:47Z,42.805,6.029,13.2967,4.59979,2470.171,2020-4-23T07:41:27Z
2020-04-23T05:43:50Z,42.805,6.029,13.2964,4.59976,2470.18,2020-4-23T07:44:31Z
2020-04-23T05:46:54Z,42.805,6.029,13.2968,4.59976,2470.18,2020-4-23T07:47:34Z
2020-04-23T05:49:57Z,42.805,6.029,13.2964,4.59976,2470.171,2020-4-23T07:50:37Z
2020-04-23T05:53:00Z,42.805,6.029,13.2968,4.59979,2470.133,2020-4-23T07:53:40Z
2020-04-23T05:56:03Z,42.805,6.029,13.2968,4.59976,2470.171,2020-4-23T07:56:44Z
2020-04-23T05:59:07Z,42.805,6.029,13.2967,4.59975,2470.194,2020-4-23T07:59:47Z
2020-04-23T06:02:10Z,42.805,6.029,13.2967,4.59983,2470.11,2020-4-23T08:02:50Z
2020-04-23T06:05:13Z,42.805,6.029,13.2965,4.59978,2470.194,2020-4-23T08:05:53Z
2020-04-23T06:08:16Z,42.805,6.029,13.2967,4.59978,2470.171,2020-4-23T08:08:57Z
2020-04-23T06:11:20Z,42.805,6.029,13.2965,4.59976,2470.18,2020-4-23T08:12:00Z
2020-04-23T06:14:23Z,42.805,6.029,13.2969,4.59976,2470.194,2020-4-23T08:15:03Z
2020-04-23T06:17:26Z,42.805,6.029,13.2968,4.59978,2470.203,2020-4-23T08:18:06Z
2020-04-23T06:20:29Z,42.805,6.029,13.2968,4.59976,2470.171,2020-4-23T08:21:10Z
2020-04-23T06:23:33Z,42.805,6.029,13.2969,4.59976,2470.194,2020-4-23T08:24:13Z
2020-04-23T06:26:36Z,42.805,6.029,13.2969,4.59980,2470.156,2020-4-23T08:27:16Z
2020-04-23T06:29:39Z,42.805,6.029,13.2971,4.59979,2470.194,2020-4-23T08:30:19Z
2020-04-23T06:32:43Z,42.805,6.029,13.2964,4.59976,2470.18,2020-4-23T08:33:23Z
2020-04-23T06:35:46Z,42.805,6.029,13.2967,4.59974,2470.18,2020-4-23T08:36:26Z
2020-04-23T06:38:49Z,42.805,6.029,13.2965,4.59973,2470.156,2020-4-23T08:39:29Z
2020-04-23T06:41:52Z,42.805,6.029,13.2967,4.59973,2470.203,2020-4-23T08:42:33Z
2020-04-23T06:44:56Z,42.805,6.029,13.2967,4.59973,2470.203,2020-4-23T08:45:36Z
2020-04-23T06:47:59Z,42.805,6.029,13.2968,4.59975,2470.203,2020-4-23T08:48:39Z
2020-04-23T06:51:02Z,42.805,6.029,13.2970,4.59973,2470.217,2020-4-23T08:51:42Z
2020-04-23T06:54:05Z,42.805,6.029,13.2963,4.59973,2470.18,2020-4-23T08:54:46Z
2020-04-23T06:57:09Z,42.805,6.029,13.2966,4.59973,2470.156,2020-4-23T08:57:49Z
2020-04-23T07:00:12Z,42.805,6.029,13.2964,4.59971,2470.203,2020-4-23T09:00:52Z
2020-04-23T07:03:15Z,42.805,6.029,13.2964,4.59975,2470.194,2020-4-23T09:03:55Z
2020-04-23T07:06:18Z,42.805,6.029,13.2970,4.59976,2470.227,2020-4-23T09:06:58Z
2020-04-23T07:09:21Z,42.805,6.029,13.2968,4.59973,2470.217,2020-4-23T09:10:02Z
2020-04-23T07:12:25Z,42.805,6.029,13.2968,4.59973,2470.194,2020-4-23T09:13:05Z
2020-04-23T07:15:28Z,42.805,6.029,13.2969,4.59973,2470.194,2020-4-23T09:16:08Z
2020-04-23T07:18:31Z,42.805,6.029,13.2968,4.59971,2470.217,2020-4-23T09:19:11Z
2020-04-23T07:21:34Z,42.805,6.029,13.2968,4.59973,2470.203,2020-4-23T09:22:15Z
2020-04-23T07:24:37Z,42.805,6.029,13.2967,4.59975,2470.18,2020-4-23T09:25:18Z
2020-04-23T07:27:41Z,42.805,6.029,13.2968,4.59975,2470.18,2020-4-23T09:28:21Z
2020-04-23T07:30:44Z,42.805,6.029,13.2971,4.59975,2470.203,2020-4-23T09:31:24Z
2020-04-23T07:33:47Z,42.805,6.029,13.2964,4.59976,2470.194,2020-4-23T09:34:28Z
2020-04-23T07:36:51Z,42.805,6.029,13.2964,4.59973,2470.18,2020-4-23T09:37:31Z
2020-04-23T07:39:54Z,42.805,6.029,13.2968,4.59973,2470.24,2020-4-23T09:40:34Z
2020-04-23T07:42:57Z,42.805,6.029,13.2967,4.59974,2470.203,2020-4-23T09:43:37Z
2020-04-23T07:46:00Z,42.805,6.029,13.2967,4.59971,2470.18,2020-4-23T09:46:41Z
2020-04-23T07:49:04Z,42.805,6.029,13.2967,4.59976,2470.18,2020-4-23T09:49:44Z
2020-04-23T07:52:07Z,42.805,6.029,13.2968,4.59975,2470.156,2020-4-23T09:52:47Z
2020-04-23T07:55:10Z,42.805,6.029,13.2966,4.59972,2470.194,2020-4-23T09:55:50Z
2020-04-23T07:58:13Z,42.805,6.029,13.2965,4.59973,2470.217,2020-4-23T09:58:54Z
2020-04-23T08:01:17Z,42.805,6.029,13.2969,4.59973,2470.18,2020-4-23T10:01:57Z
2020-04-23T08:04:20Z,42.805,6.029,13.2966,4.59974,2470.18,2020-4-23T10:05:00Z
2020-04-23T08:07:23Z,42.805,6.029,13.2967,4.59974,2470.18,2020-4-23T10:08:03Z
2020-04-23T08:10:26Z,42.805,6.029,13.2968,4.59975,2470.203,2020-4-23T10:11:06Z
2020-04-23T08:13:29Z,42.805,6.029,13.2967,4.59973,2470.217,2020-4-23T10:14:10Z
2020-04-23T08:16:33Z,42.805,6.029,13.2964,4.59973,2470.18,2020-4-23T10:17:13Z
2020-04-23T08:19:36Z,42.805,6.029,13.2964,4.59973,2470.217,2020-4-23T10:20:16Z
2020-04-23T08:22:39Z,42.805,6.029,13.2968,4.59976,2470.194,2020-4-23T10:23:19Z
2020-04-23T08:25:43Z,42.805,6.029,13.2964,4.59977,2470.194,2020-4-23T10:26:23Z
2020-04-23T08:28:46Z,42.805,6.029,13.2968,4.59971,2470.18,2020-4-23T10:29:26Z
2020-04-23T08:31:49Z,42.805,6.029,13.2964,4.59973,2470.18,2020-4-23T10:32:30Z
2020-04-23T08:34:53Z,42.805,6.029,13.2968,4.59975,2470.194,2020-4-23T10:35:33Z
2020-04-23T08:37:56Z,42.805,6.029,13.2967,4.59976,2470.18,2020-4-23T10:38:36Z
2020-04-23T08:40:59Z,42.805,6.029,13.2968,4.59978,2470.194,2020-4-23T10:41:39Z
2020-04-23T08:44:02Z,42.805,6.029,13.2971,4.59974,2470.18,2020-4-23T10:44:43Z
2020-04-23T08:47:06Z,42.805,6.029,13.2966,4.59972,2470.156,2020-4-23T10:47:46Z
2020-04-23T08:50:09Z,42.805,6.029,13.2967,4.59971,2470.18,2020-4-23T10:50:49Z
2020-04-23T08:53:12Z,42.805,6.029,13.2967,4.59976,2470.171,2020-4-23T10:53:52Z
2020-04-23T08:56:15Z,42.805,6.029,13.2968,4.59976,2470.133,2020-4-23T10:56:56Z
2020-04-23T08:59:19Z,42.805,6.029,13.2968,4.59973,2470.194,2020-4-23T10:59:59Z
2020-04-23T09:02:22Z,42.805,6.029,13.2965,4.59975,2470.147,2020-4-23T11:03:02Z
2020-04-23T09:05:25Z,42.805,6.029,13.2968,4.59976,2470.133,2020-4-23T11:06:06Z
2020-04-23T09:08:29Z,42.805,6.029,13.2965,4.59973,2470.194,2020-4-23T11:09:09Z
2020-04-23T09:11:32Z,42.805,6.029,13.2967,4.59976,2470.18,2020-4-23T11:12:12Z
2020-04-23T09:14:35Z,42.805,6.029,13.2968,4.59974,2470.133,2020-4-23T11:15:15Z
2020-04-23T09:17:38Z,42.805,6.029,13.2967,4.59976,2470.133,2020-4-23T11:18:19Z
2020-04-23T09:20:42Z,42.805,6.029,13.2965,4.59973,2470.11,2020-4-23T11:21:22Z
2020-04-23T09:23:45Z,42.805,6.029,13.2964,4.59976,2470.147,2020-4-23T11:24:25Z
2020-04-23T09:26:48Z,42.805,6.029,13.2967,4.59974,2470.133,2020-4-23T11:27:28Z
2020-04-23T09:29:51Z,42.805,6.029,13.2968,4.59975,2470.147,2020-4-23T11:30:32Z
2020-04-23T09:32:55Z,42.805,6.029,13.2967,4.59979,2470.147,2020-4-23T11:33:35Z
2020-04-23T09:35:58Z,42.805,6.029,13.2967,4.59973,2470.147,2020-4-23T11:36:38Z
2020-04-23T09:39:01Z,42.805,6.029,13.2966,4.59973,2470.124,2020-4-23T11:39:41Z
2020-04-23T09:42:04Z,42.805,6.029,13.2967,4.59979,2470.11,2020-4-23T11:42:45Z
2020-04-23T09:45:08Z,42.805,6.029,13.2965,4.59978,2470.124,2020-4-23T11:45:48Z
2020-04-23T09:48:11Z,42.805,6.029,13.2971,4.59978,2470.124,2020-4-23T11:48:51Z
2020-04-23T09:51:14Z,42.805,6.029,13.2964,4.59973,2470.133,2020-4-23T11:51:54Z
2020-04-23T09:54:17Z,42.805,6.029,13.2967,4.59975,2470.147,2020-4-23T11:54:57Z
2020-04-23T09:57:20Z,42.805,6.029,13.2966,4.59974,2470.147,2020-4-23T11:58:01Z
2020-04-23T10:00:24Z,42.805,6.029,13.2970,4.59976,2470.11,2020-4-23T12:01:04Z
2020-04-23T10:03:27Z,42.805,6.029,13.2965,4.59980,2470.11,2020-4-23T12:04:07Z
2020-04-23T10:06:30Z,42.805,6.029,13.2967,4.59979,2470.1,2020-4-23T12:07:10Z
2020-04-23T10:09:33Z,42.805,6.029,13.2967,4.59983,2470.1,2020-4-23T12:10:14Z
2020-04-23T10:12:37Z,42.805,6.029,13.2965,4.59985,2470.087,2020-4-23T12:13:17Z
2020-04-23T10:15:40Z,42.805,6.029,13.2968,4.59976,2470.124,2020-4-23T12:16:20Z
2020-04-23T10:18:43Z,42.805,6.029,13.2972,4.59976,2470.124,2020-4-23T12:19:23Z
2020-04-23T10:21:46Z,42.805,6.029,13.2969,4.59978,2470.087,2020-4-23T12:22:27Z
2020-04-23T10:24:50Z,42.805,6.029,13.2968,4.59975,2470.087,2020-4-23T12:25:30Z
2020-04-23T10:27:53Z,42.805,6.029,13.2968,4.59982,2470.11,2020-4-23T12:28:33Z
2020-04-23T10:30:56Z,42.805,6.029,13.2966,4.59976,2470.063,2020-4-23T12:31:36Z
2020-04-23T10:33:59Z,42.805,6.029,13.2968,4.59980,2470.063,2020-4-23T12:34:40Z
2020-04-23T10:37:03Z,42.805,6.029,13.2967,4.59983,2470.063,2020-4-23T12:37:43Z
2020-04-23T10:40:06Z,42.805,6.029,13.2968,4.59978,2470.087,2020-4-23T12:40:46Z
2020-04-23T10:43:09Z,42.805,6.029,13.2967,4.59978,2470.077,2020-4-23T12:43:49Z
2020-04-23T10:46:13Z,42.805,6.029,13.2968,4.59978,2470.063,2020-4-23T12:46:53Z
2020-04-23T10:49:16Z,42.805,6.029,13.2966,4.59983,2470.133,2020-4-23T12:49:56Z
2020-04-23T10:52:19Z,42.805,6.029,13.2968,4.59984,2470.04,2020-4-23T12:52:59Z
2020-04-23T10:55:22Z,42.805,6.029,13.2967,4.59981,2470.1,2020-4-23T12:56:02Z
2020-04-23T10:58:25Z,42.805,6.029,13.2968,4.59976,2470.087,2020-4-23T12:59:06Z
2020-04-23T11:01:29Z,42.805,6.029,13.2971,4.59982,2470.077,2020-4-23T13:02:09Z
2020-04-23T11:04:32Z,42.805,6.029,13.2967,4.59978,2470.053,2020-4-23T13:05:12Z
2020-04-23T11:07:35Z,42.805,6.029,13.2966,4.59979,2470.077,2020-4-23T13:08:15Z
2020-04-23T11:10:38Z,42.805,6.029,13.2968,4.59978,2470.124,2020-4-23T13:11:19Z
2020-04-23T11:13:42Z,42.805,6.029,13.2968,4.59976,2470.087,2020-4-23T13:14:22Z
2020-04-23T11:16:45Z,42.805,6.029,13.2966,4.59987,2470.077,2020-4-23T13:17:25Z
2020-04-23T11:19:48Z,42.805,6.029,13.2971,4.59980,2470.087,2020-4-23T13:20:28Z
2020-04-23T11:22:52Z,42.805,6.029,13.2967,4.59980,2470.063,2020-4-23T13:23:32Z
2020-04-23T11:25:55Z,42.805,6.029,13.2968,4.59981,2470.053,2020-4-23T13:26:35Z
2020-04-23T11:28:58Z,42.805,6.029,13.2967,4.59980,2470.063,2020-4-23T13:29:38Z
2020-04-23T11:32:01Z,42.805,6.029,13.2966,4.59982,2470.017,2020-4-23T13:32:41Z
2020-04-23T11:35:04Z,42.805,6.029,13.2964,4.59989,2470.04,2020-4-23T13:35:45Z
2020-04-23T11:38:08Z,42.805,6.029,13.2967,4.59987,2470.03,2020-4-23T13:38:48Z
2020-04-23T11:41:11Z,42.805,6.029,13.2965,4.59978,2470.017,2020-4-23T13:41:51Z
2020-04-23T11:44:14Z,42.805,6.029,13.2968,4.59982,2470.073,2020-4-23T13:44:54Z
2020-04-23T11:47:17Z,42.805,6.029,13.2967,4.59988,2470.017,2020-4-23T13:47:58Z
2020-04-23T11:50:21Z,42.805,6.029,13.2967,4.59991,2470.053,2020-4-23T13:51:01Z
2020-04-23T11:53:24Z,42.805,6.029,13.2967,4.59984,2470.017,2020-4-23T13:54:04Z
2020-04-23T11:56:27Z,42.805,6.029,13.2967,4.59983,2470.053,2020-4-23T13:57:07Z
2020-04-23T11:59:30Z,42.805,6.029,13.2967,4.59982,2470.04,2020-4-23T14:00:11Z
2020-04-23T12:02:34Z,42.805,6.029,13.2967,4.59986,2470.04,2020-4-23T14:03:14Z
2020-04-23T12:05:37Z,42.805,6.029,13.2967,4.59997,2470.053,2020-4-23T14:06:17Z
2020-04-23T12:08:40Z,42.805,6.029,13.2967,4.59993,2470.03,2020-4-23T14:09:20Z
2020-04-23T12:11:43Z,42.805,6.029,13.2965,4.59986,2470.017,2020-4-23T14:12:24Z
2020-04-23T12:14:47Z,42.805,6.029,13.2969,4.59988,2470.077,2020-4-23T14:15:27Z
2020-04-23T12:17:50Z,42.805,6.029,13.2968,4.59993,2470.007,2020-4-23T14:18:30Z
2020-04-23T12:20:53Z,42.805,6.029,13.2968,4.59987,2469.993,2020-4-23T14:21:33Z
2020-04-23T12:23:56Z,42.805,6.029,13.2964,4.59983,2470.03,2020-4-23T14:24:37Z
2020-04-23T12:27:00Z,42.805,6.029,13.2969,4.59983,2470.017,2020-4-23T14:27:40Z
2020-04-23T12:30:03Z,42.805,6.029,13.2967,4.59986,2470.053,2020-4-23T14:30:43Z
2020-04-23T12:33:06Z,42.805,6.029,13.2969,4.59988,2470.03,2020-4-23T14:33:46Z
2020-04-23T12:36:09Z,42.805,6.029,13.2967,4.59992,2469.97,2020-4-23T14:36:50Z
2020-04-23T12:39:13Z,42.805,6.029,13.2966,4.59982,2470.063,2020-4-23T14:39:53Z
2020-04-23T12:42:16Z,42.805,6.029,13.2968,4.59982,2470.017,2020-4-23T14:42:56Z
2020-04-23T12:45:19Z,42.805,6.029,13.2964,4.59983,2469.993,2020-4-23T14:45:59Z
2020-04-23T12:48:22Z,42.805,6.029,13.2968,4.59984,2470.017,2020-4-23T14:49:02Z
2020-04-23T12:51:25Z,42.805,6.029,13.2970,4.59983,2470.017,2020-4-23T14:52:06Z
2020-04-23T12:54:29Z,42.805,6.029,13.2965,4.59980,2469.993,2020-4-23T14:55:09Z
2020-04-23T12:57:32Z,42.805,6.029,13.2970,4.59989,2470.03,2020-4-23T14:58:12Z
2020-04-23T13:00:35Z,42.805,6.029,13.2967,4.59982,2470.007,2020-4-23T15:01:16Z
2020-04-23T13:03:39Z,42.805,6.029,13.2966,4.59980,2469.993,2020-4-23T15:04:19Z
2020-04-23T13:06:42Z,42.805,6.029,13.2964,4.59986,2470.007,2020-4-23T15:07:22Z
2020-04-23T13:09:45Z,42.805,6.029,13.2966,4.59979,2470.03,2020-4-23T15:10:25Z
2020-04-23T13:12:48Z,42.805,6.029,13.2967,4.59981,2470.003,2020-4-23T15:13:28Z
2020-04-23T13:15:51Z,42.805,6.029,13.2967,4.59977,2470.03,2020-4-23T15:16:32Z
2020-04-23T13:18:55Z,42.805,6.029,13.2967,4.59976,2469.984,2020-4-23T15:19:35Z
2020-04-23T13:21:58Z,42.805,6.029,13.2969,4.59976,2469.993,2020-4-23T15:22:38Z
2020-04-23T13:25:01Z,42.805,6.029,13.2968,4.59976,2470.007,2020-4-23T15:25:41Z
2020-04-23T13:28:04Z,42.805,6.029,13.2967,4.59978,2470.007,2020-4-23T15:28:45Z
2020-04-23T13:31:08Z,42.805,6.029,13.2968,4.59976,2469.984,2020-4-23T15:31:48Z
2020-04-23T13:34:11Z,42.805,6.029,13.2964,4.59974,2470.017,2020-4-23T15:34:51Z
2020-04-23T13:37:14Z,42.805,6.029,13.2970,4.59974,2469.984,2020-4-23T15:37:54Z
2020-04-23T13:40:17Z,42.805,6.029,13.2968,4.59978,2469.984,2020-4-23T15:40:58Z
2020-04-23T13:43:21Z,42.805,6.029,13.2964,4.59976,2469.97,2020-4-23T15:44:01Z
2020-04-23T13:46:24Z,42.805,6.029,13.2966,4.59976,2469.947,2020-4-23T15:47:04Z
2020-04-23T13:49:27Z,42.805,6.029,13.2970,4.59976,2469.97,2020-4-23T15:50:07Z
2020-04-23T13:52:30Z,42.805,6.029,13.2965,4.59976,2469.984,2020-4-23T15:53:11Z
2020-04-23T13:55:34Z,42.805,6.029,13.2968,4.59978,2469.947,2020-4-23T15:56:14Z
2020-04-23T13:58:37Z,42.805,6.029,13.2969,4.59973,2469.947,2020-4-23T15:59:17Z
2020-04-23T14:01:40Z,42.805,6.029,13.2967,4.59973,2469.97,2020-4-23T16:02:20Z
2020-04-23T14:04:44Z,42.805,6.029,13.2966,4.59973,2469.97,2020-4-23T16:05:24Z
2020-04-23T14:07:47Z,42.805,6.029,13.2970,4.59974,2469.947,2020-4-23T16:08:27Z
2020-04-23T14:10:50Z,42.805,6.029,13.2965,4.59973,2470.007,2020-4-23T16:11:30Z
2020-04-23T14:13:53Z,42.805,6.029,13.2967,4.59973,2469.97,2020-4-23T16:14:34Z
2020-04-23T14:16:57Z,42.805,6.029,13.2968,4.59976,2469.993,2020-4-23T16:17:37Z
2020-04-23T14:20:00Z,42.805,6.029,13.2967,4.59974,2469.97,2020-4-23T16:20:40Z
2020-04-23T14:23:03Z,42.805,6.029,13.2964,4.59976,2470.007,2020-4-23T16:23:43Z
2020-04-23T14:26:07Z,42.805,6.029,13.2967,4.59975,2469.97,2020-4-23T16:26:47Z
2020-04-23T14:29:10Z,42.805,6.029,13.2971,4.59975,2469.947,2020-4-23T16:29:50Z
2020-04-23T14:32:13Z,42.805,6.029,13.2964,4.59973,2469.993,2020-4-23T16:32:53Z
2020-04-23T14:35:16Z,42.805,6.029,13.2967,4.59974,2470.007,2020-4-23T16:35:57Z
2020-04-23T14:38:20Z,42.805,6.029,13.2968,4.59976,2469.993,2020-4-23T16:39:00Z
2020-04-23T14:41:23Z,42.805,6.029,13.2967,4.59975,2469.97,2020-4-23T16:42:03Z
2020-04-23T14:44:26Z,42.805,6.029,13.2966,4.59973,2470.03,2020-4-23T16:45:06Z
2020-04-23T14:47:29Z,42.805,6.029,13.2967,4.59973,2469.993,2020-4-23T16:48:10Z
2020-04-23T14:50:33Z,42.805,6.029,13.2968,4.59973,2470.007,2020-4-23T16:51:13Z
2020-04-23T14:53:36Z,42.805,6.029,13.2965,4.59973,2469.993,2020-4-23T16:54:16Z
2020-04-23T14:56:39Z,42.805,6.029,13.2970,4.59979,2469.97,2020-4-23T16:57:19Z
2020-04-23T14:59:42Z,42.805,6.029,13.2970,4.59974,2469.984,2020-4-23T17:00:23Z
2020-04-23T15:02:46Z,42.805,6.029,13.2967,4.59977,2469.97,2020-4-23T17:03:26Z
2020-04-23T15:05:49Z,42.805,6.029,13.2966,4.59978,2469.993,2020-4-23T17:06:29Z
2020-04-23T15:08:52Z,42.805,6.029,13.2967,4.59975,2469.97,2020-4-23T17:09:32Z
2020-04-23T15:11:55Z,42.805,6.029,13.2971,4.59978,2469.97,2020-4-23T17:12:35Z
2020-04-23T15:14:59Z,42.805,6.029,13.2969,4.59973,2469.97,2020-4-23T17:15:39Z